Tracking 19832 objects as of 24-Aug-2019
HD Live streaming from Space Station
objects crossing your sky now

FENGYUN 1C DEB

Track FENGYUN 1C DEB now!
10-day predictions


NORAD ID: 31899
Int'l Code: 1999-025CLA
Perigee: 837.8 km
Apogee: 1,146.1 km
Inclination: 102.1 °
Period: 104.8 minutes
Semi major axis: 7362 km
RCS: 0.0071 m2 (small)
Launch date: May 10, 1999
Source: People's Republic of China (PRC)
Launch site: Taiyaun Space Center, China (TSC)

Note: This is SATELLITE DEBRIS
aabbcc
Your satellite tracking list
Your tracking list is empty




NASA's NSSDC Master Catalog

Two Line Element Set (TLE):
1 31899U 99025CLA 19235.16075257 +.00000524 +00000-0 +53573-3 0  9995
2 31899 102.0901 007.3335 0209333 216.4187 142.2556 13.74124336358493
Source of the keplerian elements: AFSPC